This is the latest recevied weather packets stored in our database for station/object OE-11373. If no packets are shown the sender has not sent any weather packets the latest 10 day(s).
| Time | Temp. | Humidity | Pressure | Rain* | Wind** | Luminosity | Snow |
|---|---|---|---|---|---|---|---|
| 1787889313 | 24.44° C | 42% | 851.3 hPa | - | - | - | - |
| 1787888712 | 25° C | 39% | 851.3 hPa | - | - | - | - |
| 1787888112 | 24.44° C | 42% | 851.3 hPa | - | - | - | - |
| 1787887512 | 25° C | 41% | 851.3 hPa | - | - | - | - |
| 1787886684 | 25.56° C | 36% | 851.4 hPa | - | - | - | - |
| 1787886311 | 25° C | 40% | 851.5 hPa | - | - | - | - |
| 1787885713 | 25° C | 40% | 851.5 hPa | - | - | - | - |
| 1787884886 | 25° C | 40% | 851.4 hPa | - | - | - | - |
| 1787884513 | 23.89° C | 45% | 851.3 hPa | - | - | - | - |
| 1787883913 | 23.89° C | 45% | 851.3 hPa | - | - | - | - |
| 1787883086 | 23.89° C | 45% | 851.4 hPa | - | - | - | - |
| 1787882713 | 23.89° C | 47% | 851.3 hPa | - | - | - | - |
| 1787882110 | 23.89° C | 46% | 851.2 hPa | - | - | - | - |
| 1787881286 | 23.89° C | 47% | 851.2 hPa | - | - | - | - |
| 1787880913 | 23.89° C | 46% | 851.2 hPa | - | - | - | - |
| 1787880313 | 23.33° C | 49% | 851.3 hPa | - | - | - | - |
| 1787879485 | 23.33° C | 49% | 851.3 hPa | - | - | - | - |
| 1787879112 | 23.33° C | 49% | 851.3 hPa | - | - | - | - |
| 1787878513 | 23.33° C | 50% | 851.4 hPa | - | - | - | - |
| 1787877685 | 23.33° C | 51% | 851.3 hPa | - | - | - | - |
| 1787877313 | 23.33° C | 52% | 851.3 hPa | - | - | - | - |
| 1787876713 | 23.33° C | 52% | 851.4 hPa | - | - | - | - |
| 1787875885 | 23.33° C | 52% | 851.5 hPa | - | - | - | - |
| 1787875512 | 23.33° C | 53% | 851.3 hPa | - | - | - | - |
| 1787874913 | 23.33° C | 53% | 851.4 hPa | - | - | - | - |
* Rain since midnight (hover to see other rain measurements)
** Current wind speed in m/s (hover to see current wind gust speed)